SPACEBEE-151 (52413 NORAD) Tracking and Keplerian Element Data

This shows tracking and keplerian element data for the satellite.

Feedback or suggestion? Click here.




ElementValue
Catalog52413
NameSPACEBEE-151
Epoch Orbit1203
Epoch Day192.81186194
Epoch Year2022
RAAN277.154
Inclination97.45
Eccentricity0.0011415
Argument of Perigee96.0302
Mean Anonmoly264.223
Mean Motion15.13646831
Decay Rate6.776E-05
L11 52413U 22047V 22192.81186194 .00006776 00000+0 37988-3 0 9997
L22 52413 97.4500 277.1540 0011415 96.0302 264.2230 15.13646831 12033

Live tracking and technical data element details for SPACEBEE-151 (NORAD 52413). SPACEBEE-151 can be tracked NOW for your location showing map with azimuth and elevation plus other details from your city location.

Track the satellite on the map from your city or location and see movement details for azimuth, elevation, latitude, longitude, range, height, and movement on the map or in text.







IsCatalogInMostPopularTable: catalog: 52413, numindb: 6
Update: records affected: 1



GetName: 52413 SPACEBEE-151

Hit Count: updated at: Sun, 14 Aug 2022 01:21:35 GMT